Location: Kosice
(48.7167°N, 21.2500°E)
Time: 07:40:06
(UTC+01:00)

ISS - Pass Details

Date: 29 October 2017
Orbit: 402 x 407 km, 51.6° (Epoch: 19 November)

Event Time Altitude Azimuth Distance (km) Brightness Sun altitude
Rises 05:08:48 0° 192° (SSW) 2,301 0.0 -11.7°
Reaches altitude 10° 05:11:51 10° 160° (SSE) 1,448 -0.7 -11.2°
Maximum altitude 05:13:13 12° 135° (SE) 1,326 -0.4 -11.0°
Drops below altitude 10° 05:14:35 10° 110° (ESE) 1,453 0.4 -10.8°
Sets 05:17:39 0° 79° (ENE) 2,317 1.5 -10.3°
